| time (UTC) | temp F | wind direction | speed MPH | gust MPH | rain 1hr in | rain 24hr in | rain mn in | humidity % | barometer mb |
| 20260906083311 | 66 | 30 | 4.0 | 7.0 | 0.00 | 0.04 | 0.00 | 96 | 1014.6 |
| 20260906082823 | 67 | 23 | 5.0 | 7.0 | 0.00 | 0.04 | 0.00 | 96 | 1014.7 |
| 20260906082317 | 67 | 55 | 3.0 | 7.0 | 0.00 | 0.04 | 0.00 | 96 | 1014.6 |
| 20260906081829 | 67 | 46 | 4.0 | 7.0 | 0.00 | 0.04 | 0.00 | 96 | 1014.5 |
| 20260906081322 | 67 | 44 | 3.0 | 9.0 | 0.00 | 0.04 | 0.00 | 96 | 1014.5 |
| 20260906080819 | 67 | 49 | 4.0 | 7.0 | 0.00 | 0.04 | 0.00 | 96 | 1014.5 |
| 20260906080311 | 67 | 11 | 5.0 | 7.0 | 0.00 | 0.04 | 0.00 | 96 | 1014.5 |
| 20260906075824 | 67 | 32 | 4.0 | 8.0 | 0.00 | 0.04 | 0.00 | 96 | 1014.6 |
| 20260906075318 | 68 | 12 | 4.0 | 11.0 | 0.00 | 0.04 | 0.00 | 96 | 1014.6 |
| 20260906074810 | 68 | 49 | 6.0 | 11.0 | 0.00 | 0.04 | 0.00 | 96 | 1014.6 |
| 20260906074324 | 68 | 60 | 4.0 | 7.0 | 0.00 | 0.04 | 0.00 | 96 | 1014.6 |
| 20260906073816 | 68 | 42 | 4.0 | 12.0 | 0.00 | 0.04 | 0.00 | 96 | 1014.5 |
| 20260906073329 | 69 | 27 | 6.0 | 12.0 | 0.00 | 0.04 | 0.00 | 96 | 1014.5 |
| 20260906072826 | 69 | 49 | 6.0 | 10.0 | 0.00 | 0.04 | 0.00 | 96 | 1014.5 |
| 20260906072318 | 69 | 23 | 6.0 | 12.0 | 0.00 | 0.04 | 0.00 | 96 | 1014.5 |
| 20260906071810 | 69 | 51 | 4.0 | 9.0 | 0.00 | 0.04 | 0.00 | 96 | 1014.6 |
| 20260906071343 | 69 | 62 | 5.0 | 9.0 | 0.00 | 0.04 | 0.00 | 96 | 1014.6 |
| 20260906070814 | 70 | 39 | 5.0 | 8.0 | 0.00 | 0.04 | 0.00 | 96 | 1014.6 |
| 20260906070347 | 70 | 43 | 5.0 | 8.0 | 0.00 | 0.04 | 0.00 | 96 | 1014.6 |
| 20260906065819 | 70 | 42 | 4.0 | 9.0 | 0.00 | 0.04 | 0.00 | 96 | 1014.8 |
| 20260906065311 | 70 | 24 | 4.0 | 9.0 | 0.00 | 0.04 | 0.00 | 96 | 1014.8 |
| 20260906064824 | 70 | 26 | 4.0 | 8.0 | 0.00 | 0.04 | 0.00 | 96 | 1014.7 |
| 20260906064321 | 70 | 61 | 4.0 | 7.0 | 0.00 | 0.04 | 0.00 | 96 | 1014.6 |
| 20260906063813 | 70 | 51 | 4.0 | 8.0 | 0.00 | 0.04 | 0.00 | 96 | 1014.7 |
| 20260906063326 | 71 | 41 | 4.0 | 8.0 | 0.00 | 0.04 | 0.00 | 96 | 1014.7 |
| 20260906062819 | 71 | 51 | 3.0 | 8.0 | 0.00 | 0.04 | 0.00 | 96 | 1014.7 |
| 20260906062332 | 71 | 49 | 5.0 | 8.0 | 0.00 | 0.04 | 0.00 | 96 | 1014.8 |
| 20260906061824 | 71 | 42 | 3.0 | 8.0 | 0.00 | 0.04 | 0.00 | 96 | 1014.8 |
| 20260906061317 | 72 | 9 | 4.0 | 8.0 | 0.00 | 0.04 | 0.00 | 97 | 1014.8 |
| 20260906060825 | 72 | 20 | 4.0 | 8.0 | 0.00 | 0.04 | 0.00 | 97 | 1014.8 |
| 20260906060318 | 72 | 51 | 3.0 | 6.0 | 0.00 | 0.04 | 0.00 | 97 | 1014.8 |
| 20260906055815 | 72 | 37 | 3.0 | 5.0 | 0.00 | 0.04 | 0.00 | 97 | 1014.8 |
| 20260906055328 | 72 | 56 | 3.0 | 5.0 | 0.00 | 0.04 | 0.00 | 97 | 1014.8 |
| 20260906054821 | 72 | 41 | 3.0 | 7.0 | 0.00 | 0.04 | 0.00 | 97 | 1014.7 |
| 20260906054314 | 72 | 49 | 4.0 | 7.0 | 0.00 | 0.04 | 0.00 | 97 | 1014.8 |
| 20260906053847 | 72 | 37 | 4.0 | 7.0 | 0.00 | 0.04 | 0.00 | 97 | 1014.7 |
| 20260906053318 | 72 | 47 | 2.0 | 8.0 | 0.00 | 0.04 | 0.00 | 97 | 1014.6 |
| 20260906052811 | 72 | 57 | 5.0 | 8.0 | 0.00 | 0.04 | 0.00 | 97 | 1014.6 |
| 20260906052324 | 72 | 43 | 3.0 | 7.0 | 0.00 | 0.04 | 0.00 | 97 | 1014.6 |
| 20260906051821 | 72 | 56 | 3.0 | 6.0 | 0.00 | 0.04 | 0.00 | 97 | 1014.5 |
| 20260906051314 | 72 | 51 | 3.0 | 8.0 | 0.00 | 0.04 | 0.00 | 97 | 1014.6 |
| 20260906050827 | 72 | 53 | 5.0 | 8.0 | 0.00 | 0.04 | 0.00 | 97 | 1014.5 |
| 20260906050340 | 72 | 46 | 3.0 | 6.0 | 0.00 | 0.04 | 0.00 | 97 | 1014.4 |
| 20260906045831 | 72 | 47 | 4.0 | 6.0 | 0.00 | 0.04 | 0.00 | 97 | 1014.4 |
| 20260906045323 | 72 | 43 | 3.0 | 6.0 | 0.00 | 0.04 | 0.00 | 97 | 1014.5 |
| 20260906044816 | 72 | 39 | 3.0 | 7.0 | 0.00 | 0.04 | 0.00 | 97 | 1014.3 |
| 20260906044329 | 72 | 65 | 3.0 | 11.0 | 0.00 | 0.04 | 0.00 | 97 | 1014.3 |
| 20260906043822 | 72 | 20 | 5.0 | 10.0 | 0.00 | 0.04 | 0.00 | 97 | 1014.2 |
| 20260906043318 | 72 | 48 | 4.0 | 10.0 | 0.00 | 0.04 | 0.00 | 97 | 1014.0 |
| 20260906042811 | 72 | 360 | 2.0 | 6.0 | 0.00 | 0.04 | 0.00 | 97 | 1014.0 |
| 20260906042344 | 72 | 41 | 3.0 | 6.0 | 0.00 | 0.04 | 0.00 | 97 | 1014.0 |
| 20260906041816 | 73 | 28 | 2.0 | 6.0 | 0.00 | 0.04 | 0.00 | 97 | 1014.0 |
| 20260906041329 | 73 | 20 | 4.0 | 6.0 | 0.00 | 0.04 | 0.00 | 96 | 1013.9 |
| 20260906040822 | 73 | 36 | 2.0 | 5.0 | 0.00 | 0.04 | 0.00 | 96 | 1013.9 |
| 20260906040314 | 73 | 18 | 3.0 | 5.0 | 0.00 | 0.04 | 0.00 | 96 | 1013.8 |
| 20260906035828 | 73 | 46 | 3.0 | 5.0 | 0.00 | 0.04 | 0.00 | 96 | 1013.7 |
| 20260906035320 | 73 | 51 | 2.0 | 5.0 | 0.00 | 0.04 | 0.00 | 96 | 1013.7 |
| 20260906034817 | 73 | 46 | 2.0 | 4.0 | 0.00 | 0.04 | 0.04 | 96 | 1013.7 |
| 20260906034310 | 73 | 58 | 1.0 | 3.0 | 0.00 | 0.04 | 0.04 | 96 | 1013.7 |
| 20260906033823 | 73 | 15 | 1.0 | 5.0 | 0.00 | 0.04 | 0.04 | 96 | 1013.7 |
| 20260906033316 | 73 | 33 | 2.0 | 6.0 | 0.00 | 0.04 | 0.04 | 96 | 1013.8 |
| 20260906032829 | 73 | 44 | 3.0 | 6.0 | 0.00 | 0.04 | 0.04 | 96 | 1013.8 |
| 20260906032321 | 73 | 46 | 1.0 | 4.0 | 0.00 | 0.04 | 0.04 | 96 | 1013.8 |
| 20260906031814 | 73 | 32 | 2.0 | 4.0 | 0.00 | 0.04 | 0.04 | 96 | 1013.9 |
| 20260906031311 | 73 | 30 | 1.0 | 4.0 | 0.00 | 0.04 | 0.04 | 96 | 1013.8 |
| 20260906030823 | 73 | 18 | 1.0 | 6.0 | 0.00 | 0.04 | 0.04 | 97 | 1013.9 |
| 20260906030316 | 73 | 27 | 2.0 | 6.0 | 0.00 | 0.04 | 0.04 | 97 | 1013.8 |
| 20260906025829 | 73 | 32 | 1.0 | 5.0 | 0.00 | 0.04 | 0.04 | 97 | 1013.8 |
| 20260906025321 | 73 | 24 | 1.0 | 3.0 | 0.00 | 0.04 | 0.04 | 97 | 1013.9 |
| 20260906024814 | 73 | 21 | 1.0 | 3.0 | 0.00 | 0.04 | 0.04 | 97 | 1013.9 |
| 20260906024326 | 73 | 22 | 2.0 | 3.0 | 0.00 | 0.04 | 0.04 | 97 | 1013.9 |
| 20260906023819 | 73 | 49 | 0.0 | 1.0 | 0.00 | 0.04 | 0.04 | 97 | 1013.8 |
| 20260906023316 | 73 | 49 | 0.0 | 1.0 | 0.00 | 0.04 | 0.04 | 97 | 1013.9 |
| 20260906022850 | 73 | 46 | 0.0 | 3.0 | 0.00 | 0.04 | 0.04 | 96 | 1014.0 |
| 20260906022321 | 73 | 46 | 1.0 | 4.0 | 0.00 | 0.04 | 0.04 | 96 | 1014.0 |
| 20260906021813 | 73 | 52 | 1.0 | 4.0 | 0.00 | 0.04 | 0.04 | 96 | 1013.9 |
| 20260906021327 | 73 | 25 | 1.0 | 3.0 | 0.00 | 0.04 | 0.04 | 96 | 1013.9 |
| 20260906020820 | 73 | 22 | 0.0 | 2.0 | 0.00 | 0.04 | 0.04 | 96 | 1013.9 |
| 20260906020332 | 73 | 16 | 1.0 | 5.0 | 0.00 | 0.04 | 0.04 | 96 | 1013.9 |
| 20260906015823 | 73 | 34 | 2.0 | 5.0 | 0.00 | 0.04 | 0.04 | 96 | 1013.9 |
| 20260906015316 | 73 | 37 | 1.0 | 4.0 | 0.00 | 0.04 | 0.04 | 96 | 1013.9 |
| 20260906014849 | 73 | 46 | 2.0 | 4.0 | 0.00 | 0.04 | 0.04 | 96 | 1013.9 |
| 20260906014325 | 73 | 58 | 2.0 | 5.0 | 0.00 | 0.04 | 0.04 | 96 | 1013.9 |
| 20260906013817 | 73 | 49 | 1.0 | 3.0 | 0.00 | 0.04 | 0.04 | 96 | 1013.9 |
| 20260906013310 | 72 | 41 | 0.0 | 1.0 | 0.00 | 0.04 | 0.04 | 96 | 1013.9 |
| 20260906012820 | 72 | 42 | 0.0 | 1.0 | 0.00 | 0.04 | 0.04 | 96 | 1013.7 |
| 20260906012333 | 72 | 41 | 0.0 | 0.0 | 0.00 | 0.04 | 0.04 | 96 | 1013.5 |
| 20260906011824 | 72 | 41 | 0.0 | 0.0 | 0.00 | 0.04 | 0.04 | 96 | 1013.5 |
| 20260906011317 | 72 | 41 | 0.0 | 0.0 | 0.00 | 0.04 | 0.04 | 96 | 1013.5 |
| 20260906010830 | 72 | 41 | 0.0 | 0.0 | 0.00 | 0.04 | 0.04 | 96 | 1013.4 |
| 20260906010323 | 73 | 41 | 0.0 | 0.0 | 0.00 | 0.04 | 0.04 | 96 | 1013.3 |
| 20260906005819 | 73 | 42 | 0.0 | 0.0 | 0.00 | 0.04 | 0.04 | 96 | 1013.3 |
| 20260906005312 | 73 | 41 | 0.0 | 0.0 | 0.00 | 0.04 | 0.04 | 96 | 1013.4 |
| 20260906004845 | 73 | 41 | 0.0 | 0.0 | 0.00 | 0.04 | 0.04 | 96 | 1013.3 |
| 20260906004317 | 73 | 42 | 0.0 | 0.0 | 0.00 | 0.04 | 0.04 | 95 | 1013.4 |
| 20260906003830 | 73 | 41 | 0.0 | 0.0 | 0.00 | 0.04 | 0.04 | 95 | 1013.3 |
| 20260906003323 | 73 | 41 | 0.0 | 0.0 | 0.00 | 0.04 | 0.04 | 95 | 1013.2 |
| 20260906002816 | 73 | 41 | 0.0 | 0.0 | 0.02 | 0.04 | 0.04 | 95 | 1013.2 |
| 20260906002328 | 73 | 41 | 0.0 | 0.0 | 0.03 | 0.04 | 0.04 | 95 | 1013.2 |
| 20260906001825 | 73 | 41 | 0.0 | 0.0 | 0.03 | 0.04 | 0.04 | 95 | 1012.9 |
| 20260906001318 | 73 | 42 | 0.0 | 3.0 | 0.03 | 0.04 | 0.04 | 95 | 1012.8 |
| 20260906000811 | 73 | 42 | 0.0 | 3.0 | 0.03 | 0.04 | 0.04 | 95 | 1012.6 |
| 20260906000326 | 73 | 34 | 0.0 | 3.0 | 0.03 | 0.04 | 0.04 | 94 | 1012.6 |
| 20260905235817 | 74 | 24 | 0.0 | 4.0 | 0.03 | 0.04 | 0.04 | 94 | 1012.4 |
| 20260905235329 | 74 | 20 | 0.0 | 5.0 | 0.03 | 0.04 | 0.04 | 94 | 1012.4 |
| 20260905234842 | 74 | 48 | 1.0 | 5.0 | 0.03 | 0.04 | 0.04 | 93 | 1012.4 |
| 20260905234314 | 74 | 47 | 1.0 | 4.0 | 0.03 | 0.04 | 0.04 | 92 | 1012.6 |
| 20260905233811 | 75 | 36 | 1.0 | 6.0 | 0.03 | 0.04 | 0.04 | 91 | 1012.7 |
| 20260905233324 | 75 | 3 | 0.0 | 8.0 | 0.03 | 0.04 | 0.04 | 89 | 1012.7 |
| 20260905232817 | 76 | 38 | 4.0 | 8.0 | 0.01 | 0.02 | 0.02 | 86 | 1012.7 |
| 20260905232330 | 77 | 59 | 3.0 | 8.0 | 0.00 | 0.01 | 0.01 | 84 | 1012.8 |
| 20260905231822 | 78 | 37 | 5.0 | 12.0 | 0.00 | 0.01 | 0.01 | 81 | 1013.1 |
| 20260905231336 | 79 | 36 | 6.0 | 11.0 | 0.00 | 0.01 | 0.01 | 78 | 1013.2 |
| 20260905230827 | 80 | 28 | 6.0 | 14.0 | 0.00 | 0.01 | 0.01 | 77 | 1013.2 |
| 20260905230320 | 81 | 53 | 8.0 | 14.0 | 0.00 | 0.01 | 0.01 | 74 | 1012.9 |
| 20260905225813 | 83 | 26 | 7.0 | 12.0 | 0.00 | 0.01 | 0.01 | 74 | 1012.7 |
| 20260905225330 | 84 | 6 | 4.0 | 11.0 | 0.00 | 0.01 | 0.01 | 74 | 1012.6 |
| 20260905224822 | 85 | 342 | 2.0 | 7.0 | 0.00 | 0.01 | 0.01 | 77 | 1012.1 |
| 20260905224315 | 85 | 276 | 0.0 | 0.0 | 0.00 | 0.01 | 0.01 | 76 | 1012.0 |
| 20260905223828 | 86 | 276 | 0.0 | 0.0 | 0.00 | 0.01 | 0.01 | 76 | 1012.3 |
| 20260905223321 | 86 | 275 | 0.0 | 0.0 | 0.00 | 0.01 | 0.01 | 75 | 1012.1 |
| 20260905222814 | 86 | 268 | 0.0 | 0.0 | 0.00 | 0.01 | 0.01 | 75 | 1011.8 |
| 20260905222324 | 87 | 268 | 0.0 | 0.0 | 0.00 | 0.01 | 0.01 | 74 | 1012.1 |
| 20260905221816 | 87 | 265 | 0.0 | 0.0 | 0.00 | 0.01 | 0.01 | 73 | 1012.4 |
| 20260905221314 | 88 | 265 | 0.0 | 0.0 | 0.00 | 0.01 | 0.01 | 71 | 1011.9 |
| 20260905220827 | 88 | 271 | 0.0 | 3.0 | 0.00 | 0.01 | 0.01 | 69 | 1011.9 |
| 20260905220320 | 89 | 271 | 1.0 | 3.0 | 0.00 | 0.01 | 0.01 | 68 | 1012.1 |
| 20260905215812 | 89 | 262 | 1.0 | 5.0 | 0.00 | 0.01 | 0.01 | 67 | 1012.1 |
| 20260905215325 | 90 | 277 | 1.0 | 6.0 | 0.00 | 0.01 | 0.01 | 66 | 1012.0 |
| 20260905214838 | 91 | 266 | 1.0 | 6.0 | 0.00 | 0.05 | 0.01 | 63 | 1011.8 |
| 20260905214330 | 92 | 309 | 0.0 | 2.0 | 0.00 | 0.05 | 0.01 | 63 | 1011.8 |
| 20260905213823 | 92 | 357 | 0.0 | 4.0 | 0.00 | 0.05 | 0.01 | 64 | 1011.8 |
| 20260905213320 | 91 | 270 | 0.0 | 5.0 | 0.00 | 0.05 | 0.01 | 66 | 1011.8 |
| 20260905212832 | 91 | 281 | 1.0 | 5.0 | 0.00 | 0.05 | 0.01 | 65 | 1011.9 |
| 20260905212323 | 92 | 334 | 1.0 | 3.0 | 0.00 | 0.05 | 0.01 | 64 | 1012.0 |
| 20260905211816 | 92 | 288 | 1.0 | 4.0 | 0.00 | 0.05 | 0.01 | 64 | 1012.1 |
| 20260905211329 | 92 | 274 | 1.0 | 4.0 | 0.00 | 0.05 | 0.01 | 62 | 1012.3 |
| 20260905210822 | 92 | 269 | 1.0 | 4.0 | 0.00 | 0.05 | 0.01 | 64 | 1012.3 |
| 20260905210315 | 92 | 271 | 1.0 | 5.0 | 0.00 | 0.05 | 0.01 | 64 | 1012.3 |
| 20260905205828 | 93 | 267 | 1.0 | 5.0 | 0.00 | 0.05 | 0.01 | 62 | 1012.4 |
| 20260905205321 | 93 | 6 | 0.0 | 4.0 | 0.00 | 0.05 | 0.01 | 63 | 1012.5 |
| 20260905204837 | 92 | 9 | 0.0 | 4.0 | 0.00 | 0.09 | 0.01 | 63 | 1012.4 |
| 20260905204329 | 92 | 359 | 0.0 | 3.0 | 0.00 | 0.09 | 0.01 | 66 | 1012.5 |
| 20260905203822 | 92 | 295 | 0.0 | 5.0 | 0.00 | 0.09 | 0.01 | 64 | 1012.6 |
| 20260905203315 | 92 | 356 | 0.0 | 5.0 | 0.00 | 0.09 | 0.01 | 63 | 1012.6 |
| 20260905202828 | 91 | 1 | 1.0 | 5.0 | 0.00 | 0.09 | 0.01 | 65 | 1012.6 |
| 20260905202320 | 92 | 210 | 1.0 | 6.0 | 0.00 | 0.09 | 0.01 | 62 | 1012.8 |
| 20260905201813 | 92 | 285 | 2.0 | 6.0 | 0.00 | 0.09 | 0.01 | 63 | 1012.8 |
| 20260905201326 | 92 | 274 | 1.0 | 5.0 | 0.00 | 0.09 | 0.01 | 65 | 1012.8 |
| 20260905200823 | 92 | 238 | 0.0 | 3.0 | 0.00 | 0.09 | 0.01 | 62 | 1012.9 |
| 20260905200316 | 92 | 249 | 1.0 | 3.0 | 0.00 | 0.09 | 0.01 | 63 | 1013.0 |
| 20260905195828 | 92 | 336 | 0.0 | 4.0 | 0.00 | 0.09 | 0.01 | 64 | 1013.0 |
| 20260905195321 | 92 | 251 | 1.0 | 4.0 | 0.00 | 0.09 | 0.01 | 63 | 1013.0 |
| 20260905194813 | 91 | 293 | 1.0 | 4.0 | 0.00 | 0.09 | 0.01 | 65 | 1013.1 |
| 20260905194326 | 91 | 280 | 0.0 | 3.0 | 0.00 | 0.09 | 0.01 | 64 | 1013.2 |
| 20260905193839 | 91 | 265 | 0.0 | 4.0 | 0.00 | 0.09 | 0.01 | 67 | 1013.3 |
| 20260905193350 | 90 | 346 | 0.0 | 4.0 | 0.00 | 0.09 | 0.01 | 66 | 1013.3 |
| 20260905192842 | 89 | 15 | 0.0 | 4.0 | 0.00 | 0.09 | 0.01 | 65 | 1013.4 |
| 20260905192313 | 90 | 265 | 2.0 | 4.0 | 0.00 | 0.09 | 0.01 | 64 | 1013.4 |
| 20260905191846 | 90 | 260 | 0.0 | 7.0 | 0.00 | 0.09 | 0.01 | 64 | 1013.5 |
| 20260905191341 | 90 | 236 | 1.0 | 7.0 | 0.00 | 0.09 | 0.01 | 63 | 1013.5 |
| 20260905190813 | 91 | 274 | 1.0 | 3.0 | 0.00 | 0.09 | 0.01 | 66 | 1013.7 |
| 20260905190326 | 90 | 259 | 0.0 | 6.0 | 0.00 | 0.09 | 0.01 | 65 | 1013.8 |
| 20260905185819 | 89 | 252 | 4.0 | 6.0 | 0.00 | 0.09 | 0.01 | 63 | 1013.8 |
| 20260905185312 | 90 | 288 | 3.0 | 6.0 | 0.00 | 0.09 | 0.01 | 62 | 1013.9 |
| 20260905184825 | 90 | 264 | 1.0 | 5.0 | 0.00 | 0.09 | 0.01 | 65 | 1014.0 |
| 20260905184318 | 90 | 290 | 1.0 | 5.0 | 0.00 | 0.09 | 0.01 | 63 | 1014.1 |
| 20260905183828 | 90 | 269 | 1.0 | 5.0 | 0.00 | 0.09 | 0.01 | 64 | 1014.1 |
| 20260905183324 | 90 | 8 | 1.0 | 5.0 | 0.00 | 0.09 | 0.01 | 66 | 1014.1 |
| 20260905182817 | 89 | 208 | 0.0 | 6.0 | 0.00 | 0.09 | 0.01 | 62 | 1014.2 |
| 20260905182350 | 89 | 264 | 1.0 | 6.0 | 0.00 | 0.09 | 0.01 | 69 | 1014.2 |
| 20260905181822 | 88 | 241 | 0.0 | 5.0 | 0.00 | 0.09 | 0.01 | 70 | 1014.1 |
| 20260905181314 | 88 | 240 | 2.0 | 8.0 | 0.00 | 0.09 | 0.01 | 65 | 1014.1 |
| 20260905180828 | 87 | 236 | 3.0 | 8.0 | 0.00 | 0.09 | 0.01 | 65 | 1014.1 |
| 20260905180321 | 87 | 250 | 4.0 | 9.0 | 0.00 | 0.09 | 0.01 | 65 | 1014.0 |
| 20260905175813 | 88 | 235 | 5.0 | 9.0 | 0.00 | 0.09 | 0.01 | 66 | 1014.1 |
| 20260905175310 | 88 | 249 | 6.0 | 9.0 | 0.00 | 0.09 | 0.01 | 66 | 1014.1 |
| 20260905174843 | 88 | 253 | 4.0 | 8.0 | 0.00 | 0.09 | 0.01 | 68 | 1014.0 |
| 20260905174314 | 87 | 247 | 2.0 | 7.0 | 0.00 | 0.09 | 0.01 | 68 | 1014.0 |
| 20260905173828 | 87 | 269 | 4.0 | 9.0 | 0.00 | 0.09 | 0.01 | 68 | 1013.9 |
| 20260905173320 | 87 | 250 | 3.0 | 11.0 | 0.00 | 0.09 | 0.01 | 69 | 1014.0 |
| 20260905172833 | 87 | 240 | 6.0 | 11.0 | 0.00 | 0.09 | 0.01 | 65 | 1013.9 |
| 20260905172325 | 87 | 234 | 6.0 | 9.0 | 0.00 | 0.09 | 0.01 | 66 | 1013.9 |
| 20260905171838 | 86 | 288 | 5.0 | 8.0 | 0.00 | 0.09 | 0.01 | 66 | 1013.9 |
| 20260905171311 | 86 | 286 | 3.0 | 8.0 | 0.00 | 0.09 | 0.01 | 69 | 1013.9 |
| 20260905170843 | 86 | 217 | 5.0 | 8.0 | 0.00 | 0.09 | 0.01 | 71 | 1014.0 |
| 20260905170314 | 86 | 274 | 4.0 | 8.0 | 0.00 | 0.09 | 0.01 | 69 | 1014.0 |
| 20260905165811 | 85 | 254 | 1.0 | 8.0 | 0.00 | 0.09 | 0.01 | 72 | 1014.2 |
| 20260905165324 | 85 | 240 | 2.0 | 8.0 | 0.00 | 0.09 | 0.01 | 73 | 1014.4 |
| 20260905164816 | 85 | 277 | 3.0 | 7.0 | 0.00 | 0.09 | 0.01 | 71 | 1014.5 |
| 20260905164329 | 84 | 223 | 3.0 | 8.0 | 0.00 | 0.09 | 0.01 | 71 | 1014.7 |
| 20260905163822 | 84 | 234 | 2.0 | 8.0 | 0.00 | 0.09 | 0.01 | 71 | 1014.8 |
| 20260905163335 | 84 | 228 | 3.0 | 7.0 | 0.00 | 0.09 | 0.01 | 72 | 1014.7 |
| 20260905162827 | 83 | 251 | 3.0 | 8.0 | 0.00 | 0.09 | 0.01 | 71 | 1014.8 |
| 20260905162319 | 83 | 276 | 5.0 | 8.0 | 0.00 | 0.09 | 0.01 | 71 | 1014.9 |
| 20260905161816 | 83 | 281 | 4.0 | 8.0 | 0.00 | 0.09 | 0.01 | 73 | 1015.0 |
| 20260905161329 | 83 | 231 | 2.0 | 7.0 | 0.00 | 0.09 | 0.01 | 71 | 1015.1 |
| 20260905160822 | 83 | 209 | 1.0 | 7.0 | 0.00 | 0.09 | 0.01 | 70 | 1015.2 |
| 20260905160335 | 82 | 193 | 1.0 | 6.0 | 0.00 | 0.09 | 0.01 | 74 | 1015.0 |
| 20260905155847 | 82 | 214 | 2.0 | 6.0 | 0.00 | 0.09 | 0.01 | 71 | 1014.9 |
| 20260905155318 | 81 | 245 | 2.0 | 6.0 | 0.00 | 0.09 | 0.01 | 74 | 1015.0 |
| 20260905154811 | 81 | 211 | 4.0 | 6.0 | 0.00 | 0.09 | 0.01 | 75 | 1014.9 |
| 20260905154324 | 81 | 156 | 3.0 | 8.0 | 0.00 | 0.09 | 0.01 | 74 | 1014.8 |
| 20260905153837 | 80 | 233 | 3.0 | 10.0 | 0.00 | 0.09 | 0.01 | 76 | 1014.7 |
| 20260905153329 | 80 | 220 | 3.0 | 10.0 | 0.00 | 0.09 | 0.01 | 74 | 1014.8 |
| 20260905152826 | 80 | 141 | 3.0 | 7.0 | 0.00 | 0.09 | 0.01 | 75 | 1014.8 |
| 20260905152319 | 80 | 278 | 3.0 | 7.0 | 0.00 | 0.09 | 0.01 | 77 | 1014.7 |
| 20260905151812 | 79 | 204 | 3.0 | 6.0 | 0.00 | 0.09 | 0.01 | 78 | 1014.6 |
| 20260905151345 | 79 | 245 | 3.0 | 9.0 | 0.00 | 0.09 | 0.01 | 76 | 1014.6 |
| 20260905150816 | 78 | 217 | 3.0 | 9.0 | 0.00 | 0.09 | 0.01 | 79 | 1014.6 |
| 20260905150350 | 78 | 206 | 6.0 | 9.0 | 0.00 | 0.09 | 0.01 | 76 | 1014.8 |
| 20260905145821 | 78 | 219 | 5.0 | 8.0 | 0.00 | 0.09 | 0.01 | 78 | 1014.8 |
| 20260905145314 | 77 | 206 | 3.0 | 8.0 | 0.00 | 0.09 | 0.01 | 78 | 1014.8 |
| 20260905144827 | 77 | 198 | 6.0 | 8.0 | 0.00 | 0.09 | 0.01 | 78 | 1014.9 |
| 20260905144323 | 77 | 210 | 4.0 | 8.0 | 0.00 | 0.09 | 0.01 | 78 | 1015.0 |
| 20260905143816 | 77 | 220 | 6.0 | 8.0 | 0.00 | 0.09 | 0.01 | 79 | 1015.1 |
| 20260905143350 | 76 | 184 | 3.0 | 7.0 | 0.00 | 0.09 | 0.01 | 80 | 1015.1 |
| 20260905142822 | 76 | 202 | 3.0 | 10.0 | 0.00 | 0.09 | 0.01 | 81 | 1015.1 |
| 20260905142314 | 75 | 207 | 3.0 | 8.0 | 0.00 | 0.09 | 0.01 | 83 | 1015.0 |
| 20260905141827 | 75 | 201 | 3.0 | 10.0 | 0.00 | 0.09 | 0.01 | 84 | 1015.0 |
| 20260905141320 | 75 | 206 | 4.0 | 10.0 | 0.00 | 0.09 | 0.01 | 84 | 1015.2 |
| 20260905140812 | 75 | 208 | 4.0 | 7.0 | 0.00 | 0.09 | 0.01 | 84 | 1015.2 |
| 20260905140325 | 74 | 162 | 4.0 | 9.0 | 0.00 | 0.09 | 0.01 | 85 | 1015.2 |
| 20260905135823 | 74 | 205 | 4.0 | 9.0 | 0.00 | 0.09 | 0.01 | 87 | 1015.2 |
| 20260905135315 | 74 | 214 | 5.0 | 9.0 | 0.00 | 0.09 | 0.01 | 87 | 1015.3 |
| 20260905134848 | 73 | 172 | 4.0 | 9.0 | 0.00 | 0.09 | 0.01 | 87 | 1015.4 |
| 20260905134320 | 73 | 205 | 6.0 | 9.0 | 0.00 | 0.09 | 0.01 | 88 | 1015.8 |
| 20260905133813 | 73 | 207 | 3.0 | 6.0 | 0.00 | 0.09 | 0.01 | 87 | 1015.8 |
| 20260905133326 | 73 | 141 | 3.0 | 6.0 | 0.00 | 0.09 | 0.01 | 88 | 1015.9 |
| 20260905132818 | 73 | 207 | 3.0 | 5.0 | 0.00 | 0.09 | 0.01 | 86 | 1016.2 |
| 20260905132311 | 73 | 139 | 2.0 | 5.0 | 0.00 | 0.09 | 0.01 | 86 | 1016.1 |
| 20260905131844 | 73 | 162 | 2.0 | 5.0 | 0.00 | 0.09 | 0.01 | 86 | 1016.3 |
| 20260905131340 | 73 | 164 | 2.0 | 8.0 | 0.00 | 0.09 | 0.01 | 87 | 1016.5 |
| 20260905130812 | 73 | 114 | 3.0 | 8.0 | 0.00 | 0.09 | 0.01 | 88 | 1016.3 |
| 20260905130345 | 73 | 87 | 4.0 | 7.0 | 0.00 | 0.09 | 0.01 | 88 | 1016.2 |
| 20260905125837 | 73 | 82 | 1.0 | 3.0 | 0.00 | 0.09 | 0.01 | 88 | 1016.2 |
| 20260905125348 | 72 | 134 | 1.0 | 2.0 | 0.00 | 0.09 | 0.01 | 90 | 1016.1 |
| 20260905124820 | 71 | 117 | 0.0 | 0.0 | 0.00 | 0.09 | 0.01 | 93 | 1015.9 |
| 20260905124313 | 70 | 126 | 0.0 | 0.0 | 0.00 | 0.09 | 0.01 | 94 | 1015.9 |
| 20260905123826 | 70 | 127 | 0.0 | 0.0 | 0.00 | 0.09 | 0.01 | 94 | 1016.0 |
| 20260905123319 | 70 | 126 | 0.0 | 0.0 | 0.00 | 0.09 | 0.01 | 93 | 1016.1 |
| 20260905122812 | 69 | 71 | 0.0 | 3.0 | 0.00 | 0.09 | 0.01 | 94 | 1016.0 |
| 20260905122329 | 69 | 43 | 0.0 | 3.0 | 0.00 | 0.09 | 0.01 | 94 | 1016.0 |
| 20260905121822 | 69 | 87 | 0.0 | 1.0 | 0.00 | 0.09 | 0.01 | 94 | 1016.0 |
| 20260905121314 | 69 | 149 | 0.0 | 0.0 | 0.00 | 0.09 | 0.01 | 94 | 1015.9 |
| 20260905120847 | 69 | 149 | 0.0 | 2.0 | 0.00 | 0.09 | 0.01 | 94 | 1015.9 |
| 20260905120339 | 69 | 152 | 0.0 | 2.0 | 0.00 | 0.09 | 0.01 | 94 | 1016.0 |
| 20260905115811 | 69 | 90 | 0.0 | 5.0 | 0.00 | 0.09 | 0.01 | 94 | 1016.1 |
| 20260905115324 | 69 | 89 | 2.0 | 5.0 | 0.00 | 0.09 | 0.01 | 94 | 1016.1 |
| 20260905114816 | 69 | 53 | 2.0 | 7.0 | 0.00 | 0.09 | 0.01 | 94 | 1016.0 |
| 20260905114349 | 69 | 63 | 4.0 | 7.0 | 0.00 | 0.09 | 0.01 | 94 | 1016.0 |
| 20260905113821 | 69 | 63 | 1.0 | 9.0 | 0.00 | 0.09 | 0.01 | 94 | 1016.2 |
| 20260905113317 | 69 | 52 | 2.0 | 9.0 | 0.00 | 0.09 | 0.01 | 94 | 1016.2 |
| 20260905112810 | 69 | 61 | 3.0 | 6.0 | 0.00 | 0.09 | 0.01 | 94 | 1016.3 |
| 20260905112323 | 69 | 82 | 3.0 | 6.0 | 0.00 | 0.09 | 0.01 | 94 | 1016.3 |
| 20260905111815 | 69 | 37 | 2.0 | 8.0 | 0.00 | 0.09 | 0.01 | 94 | 1016.5 |
| 20260905111329 | 69 | 45 | 3.0 | 9.0 | 0.00 | 0.09 | 0.01 | 94 | 1016.4 |
| 20260905110821 | 69 | 75 | 4.0 | 9.0 | 0.00 | 0.09 | 0.01 | 94 | 1016.3 |
| 20260905110335 | 69 | 62 | 5.0 | 11.0 | 0.00 | 0.09 | 0.01 | 94 | 1016.1 |
| 20260905105827 | 69 | 33 | 6.0 | 11.0 | 0.00 | 0.09 | 0.01 | 93 | 1015.9 |
| 20260905105323 | 69 | 44 | 6.0 | 15.0 | 0.01 | 0.09 | 0.01 | 94 | 1015.8 |
| 20260905104816 | 69 | 26 | 6.0 | 15.0 | 0.01 | 0.09 | 0.01 | 94 | 1015.8 |
| 20260905104329 | 69 | 58 | 8.0 | 15.0 | 0.01 | 0.09 | 0.01 | 94 | 1016.0 |
| 20260905103822 | 69 | 59 | 4.0 | 10.0 | 0.01 | 0.09 | 0.01 | 94 | 1016.0 |
| 20260905103314 | 69 | 48 | 5.0 | 13.0 | 0.01 | 0.09 | 0.01 | 94 | 1016.1 |
| 20260905102827 | 70 | 72 | 9.0 | 16.0 | 0.01 | 0.09 | 0.01 | 93 | 1016.1 |
| 20260905102320 | 70 | 51 | 10.0 | 16.0 | 0.01 | 0.09 | 0.01 | 92 | 1016.3 |
| 20260905101813 | 71 | 67 | 6.0 | 20.0 | 0.01 | 0.09 | 0.01 | 92 | 1016.5 |
| 20260905101330 | 71 | 68 | 12.0 | 20.0 | 0.01 | 0.09 | 0.01 | 92 | 1016.2 |
| 20260905100823 | 71 | 16 | 10.0 | 19.0 | 0.01 | 0.09 | 0.01 | 92 | 1016.3 |
| 20260905100315 | 71 | 16 | 10.0 | 25.0 | 0.01 | 0.09 | 0.01 | 92 | 1016.4 |
| 20260905095829 | 71 | 30 | 15.0 | 28.0 | 0.01 | 0.09 | 0.01 | 94 | 1016.3 |
| 20260905095321 | 72 | 55 | 11.0 | 28.0 | 0.00 | 0.08 | 0.00 | 97 | 1016.3 |
| 20260905094814 | 72 | 360 | 7.0 | 14.0 | 0.00 | 0.08 | 0.00 | 97 | 1015.8 |
| 20260905094327 | 71 | 39 | 0.0 | 0.0 | 0.00 | 0.08 | 0.00 | 97 | 1014.4 |
| 20260905093840 | 72 | 39 | 0.0 | 0.0 | 0.00 | 0.08 | 0.00 | 97 | 1014.3 |
| 20260905093332 | 72 | 39 | 0.0 | 0.0 | 0.00 | 0.08 | 0.00 | 97 | 1014.1 |
| 20260905092827 | 72 | 39 | 0.0 | 0.0 | 0.00 | 0.08 | 0.00 | 97 | 1014.1 |
| 20260905092321 | 72 | 39 | 0.0 | 0.0 | 0.00 | 0.08 | 0.00 | 97 | 1014.2 |
| 20260905091813 | 71 | 39 | 0.0 | 0.0 | 0.00 | 0.08 | 0.00 | 97 | 1014.2 |
| 20260905091326 | 71 | 39 | 0.0 | 0.0 | 0.00 | 0.08 | 0.00 | 97 | 1014.2 |
| 20260905090819 | 71 | 39 | 0.0 | 0.0 | 0.00 | 0.08 | 0.00 | 97 | 1014.2 |
| 20260905090312 | 71 | 39 | 0.0 | 0.0 | 0.00 | 0.08 | 0.00 | 97 | 1014.2 |
| 20260905085825 | 72 | 39 | 0.0 | 0.0 | 0.00 | 0.08 | 0.00 | 97 | 1014.2 |
| 20260905085317 | 72 | 39 | 0.0 | 0.0 | 0.00 | 0.08 | 0.00 | 97 | 1014.2 |
| 20260905084814 | 72 | 39 | 0.0 | 0.0 | 0.00 | 0.08 | 0.00 | 97 | 1014.2 |
| 20260905084327 | 72 | 39 | 0.0 | 0.0 | 0.00 | 0.08 | 0.00 | 97 | 1014.2 |
| 20260905083820 | 72 | 39 | 0.0 | 1.0 | 0.00 | 0.08 | 0.00 | 97 | 1014.2 |